CW9098 Weather Reports


time (UTC)temp
C
wind
direction
speed
KPH
gust
KPH
rain 1hr
cm
rain 24hr
cm
rain mn
cm
humidity
%
barometer
mb
20260504042632 2 226 0.0 0.0 0.00 0.53 0.51 85 1014.0
20260504042119 2 226 0.0 0.0 0.00 0.53 0.51 85 1013.9
20260504041634 2 226 0.0 0.0 0.00 0.53 0.51 84 1013.9
20260504041121 2 226 0.0 0.0 0.00 0.53 0.51 84 1014.0
20260504040635 2 226 0.0 0.0 0.00 0.53 0.51 84 1014.0
20260504040121 2 226 0.0 0.0 0.00 0.53 0.51 84 1014.0
20260504035626 2 226 0.0 0.0 0.00 0.53 0.51 84 1014.0
20260504035120 2 226 0.0 0.0 0.00 0.53 0.51 83 1014.0
20260504034634 2 226 0.0 0.0 0.00 0.53 0.51 83 1014.0
20260504034143 3 226 0.0 0.0 0.00 0.53 0.51 83 1014.0
20260504033656 3 226 0.0 3.2 0.00 0.53 0.51 83 1014.1
20260504033122 3 226 0.0 3.2 0.00 0.53 0.51 83 1014.0
20260504032637 3 226 0.0 0.0 0.00 0.53 0.51 83 1014.0
20260504032142 3 226 0.0 0.0 0.00 0.53 0.51 82 1014.0
20260504031615 3 226 0.0 0.0 0.00 0.53 0.51 82 1014.0
20260504031131 3 226 0.0 3.2 0.00 0.53 0.51 82 1013.9
20260504030618 3 226 1.6 4.8 0.00 0.56 0.51 82 1013.9
20260504030132 3 226 0.0 4.8 0.00 0.56 0.51 82 1013.9
20260504025620 3 226 1.6 4.8 0.00 0.56 0.51 82 1013.9
20260504025135 3 226 3.2 4.8 0.00 0.56 0.51 82 1013.9
20260504024622 3 226 1.6 3.2 0.00 0.56 0.51 81 1013.9
20260504024117 3 227 0.0 3.2 0.00 0.56 0.51 81 1014.0
20260504023630 3 227 0.0 0.0 0.00 0.56 0.51 80 1014.0
20260504023118 4 227 0.0 0.0 0.00 0.56 0.51 80 1013.9
20260504022633 4 227 0.0 0.0 0.00 0.56 0.51 79 1013.9
20260504022140 4 227 0.0 0.0 0.00 0.56 0.51 79 1013.9
20260504021626 4 227 0.0 0.0 0.00 0.56 0.51 79 1013.9
20260504021159 5 227 0.0 0.0 0.00 0.56 0.51 78 1013.9
20260504020645 5 227 0.0 0.0 0.00 0.56 0.51 77 1013.8
20260504020158 5 227 0.0 0.0 0.00 0.56 0.51 77 1013.9
20260504015624 5 227 0.0 0.0 0.00 0.56 0.51 77 1013.8
20260504015136 5 227 0.0 0.0 0.00 0.56 0.51 76 1013.8
20260504014623 5 227 0.0 0.0 0.00 0.56 0.51 75 1013.8
20260504014138 5 227 0.0 0.0 0.00 0.56 0.51 74 1013.8
20260504013630 6 227 0.0 0.0 0.00 0.56 0.51 74 1013.8
20260504013119 6 227 0.0 3.2 0.00 0.56 0.51 73 1013.7
20260504012635 6 227 0.0 3.2 0.00 0.56 0.51 72 1013.6
20260504012122 6 228 0.0 4.8 0.00 0.56 0.51 70 1013.6
20260504011636 6 228 1.6 4.8 0.00 0.56 0.51 69 1013.6
20260504011144 7 228 0.0 6.4 0.00 0.56 0.51 67 1013.5
20260504010616 7 228 1.6 6.4 0.00 0.56 0.51 65 1013.5
20260504010131 7 228 1.6 4.8 0.00 0.56 0.51 64 1013.5
20260504005621 8 227 0.0 3.2 0.00 0.56 0.51 61 1013.5
20260504005135 8 228 0.0 6.4 0.00 0.56 0.51 58 1013.5
20260504004644 9 226 3.2 6.4 0.00 0.56 0.51 56 1013.6
20260504004117 10 227 3.2 8.0 0.00 0.56 0.51 54 1013.4
20260504003652 10 214 1.6 6.4 0.00 0.56 0.51 52 1013.3
20260504003119 10 214 1.6 9.7 0.00 0.56 0.51 51 1013.3
20260504002633 10 214 3.2 9.7 0.00 0.56 0.51 50 1013.3
20260504002119 10 214 1.6 4.8 0.00 0.56 0.51 50 1013.3
20260504001633 11 214 1.6 8.0 0.00 0.56 0.51 49 1013.3
20260504001142 11 216 4.8 11.3 0.00 0.56 0.51 48 1013.3
20260504000655 11 219 6.4 11.3 0.00 0.56 0.51 48 1013.3
20260504000120 11 222 6.4 11.3 0.00 0.56 0.51 46 1013.3
20260503235656 12 241 4.8 11.3 0.00 0.56 0.51 45 1013.3
20260503235121 12 205 1.6 16.1 0.00 0.56 0.51 44 1013.2
20260503234636 12 234 4.8 16.1 0.00 0.56 0.51 44 1013.2
20260503234125 12 222 4.8 11.3 0.03 0.56 0.51 43 1013.2
20260503233618 12 224 6.4 19.3 0.03 0.56 0.51 42 1013.2
20260503233132 12 248 12.9 24.1 0.03 0.56 0.51 41 1013.1
20260503232620 13 232 11.3 24.1 0.03 0.56 0.51 42 1013.2
20260503232114 13 232 8.0 20.9 0.03 0.56 0.51 42 1013.1
20260503231644 13 247 4.8 22.5 0.03 0.56 0.51 41 1013.1
20260503231119 13 234 6.4 19.3 0.03 0.56 0.51 42 1013.1
20260503230632 13 210 12.9 19.3 0.03 0.56 0.51 40 1013.0
20260503230124 13 224 9.7 19.3 0.03 0.56 0.51 40 1013.0
20260503225619 13 231 1.6 14.5 0.03 0.56 0.51 41 1013.1
20260503225153 13 211 4.8 20.9 0.03 0.56 0.51 41 1013.2
20260503224620 13 259 11.3 25.7 0.03 0.56 0.51 41 1013.1
20260503224156 13 237 16.1 25.7 0.00 0.53 0.48 41 1013.0
20260503223622 13 235 4.8 16.1 0.00 0.53 0.48 41 1013.0
20260503223137 13 237 8.0 27.4 0.00 0.53 0.48 42 1013.1
20260503222624 13 225 14.5 33.8 0.00 0.53 0.48 39 1013.1
20260503222116 13 227 19.3 33.8 0.00 0.53 0.48 39 1013.2
20260503221631 14 274 14.5 25.7 0.00 0.53 0.48 38 1013.1
20260503221120 13 238 6.4 17.7 0.00 0.53 0.48 39 1013.1
20260503220634 13 230 6.4 17.7 0.00 0.53 0.48 41 1013.1
20260503220142 13 261 9.7 16.1 0.00 0.53 0.48 40 1013.2
20260503215657 13 276 6.4 24.1 0.00 0.53 0.48 41 1013.3
20260503215122 13 223 14.5 30.6 0.00 0.53 0.48 41 1013.3
20260503214615 13 229 19.3 30.6 0.00 0.53 0.48 40 1013.4
20260503214126 13 263 11.3 30.6 0.00 0.53 0.48 39 1013.3
20260503213640 14 264 16.1 30.6 0.00 0.53 0.48 39 1013.3
20260503213145 13 224 12.9 27.4 0.00 0.53 0.48 40 1013.2
20260503212620 13 196 16.1 27.4 0.00 0.53 0.48 41 1013.3
20260503212134 13 216 14.5 27.4 0.00 0.53 0.48 40 1013.3
20260503211622 13 297 8.0 17.7 0.00 0.53 0.48 40 1013.3
20260503211157 13 222 6.4 25.7 0.00 0.53 0.48 40 1013.2
20260503210643 13 241 16.1 25.7 0.00 0.53 0.48 40 1013.2
20260503210135 14 289 11.3 25.7 0.03 0.53 0.48 41 1013.3
20260503205624 13 289 12.9 25.7 0.03 0.53 0.48 42 1013.3
20260503205137 13 225 8.0 17.7 0.03 0.53 0.48 43 1013.3
20260503204631 13 273 4.8 32.2 0.03 0.53 0.48 43 1013.3
20260503204119 13 263 14.5 32.2 0.03 0.53 0.48 41 1013.4
20260503203633 13 279 11.3 27.4 0.03 0.53 0.48 40 1013.4
20260503203119 13 274 12.9 27.4 0.03 0.53 0.48 42 1013.4
20260503202633 13 263 12.9 32.2 0.03 0.53 0.48 39 1013.4
20260503202118 13 225 16.1 33.8 0.03 0.53 0.48 38 1013.4
20260503201648 13 239 16.1 32.2 0.03 0.53 0.48 40 1013.6
20260503201123 13 255 9.7 32.2 0.03 0.53 0.48 41 1013.6
20260503200639 13 233 11.3 24.1 0.03 0.53 0.48 41 1013.7
20260503200124 13 292 17.7 24.1 0.00 0.51 0.46 43 1013.7
20260503195638 13 291 12.9 27.4 0.00 0.51 0.46 41 1013.8
20260503195124 13 248 9.7 27.4 0.00 0.51 0.46 40 1013.8
20260503194619 13 266 12.9 30.6 0.00 0.51 0.46 39 1013.9
20260503194136 13 233 19.3 32.2 0.00 0.51 0.46 40 1013.9
20260503193622 13 282 12.9 32.2 0.00 0.51 0.46 40 1013.9
20260503193158 13 266 17.7 32.2 0.00 0.51 0.46 40 1014.1
20260503192623 13 278 14.5 27.4 0.00 0.51 0.46 41 1014.1
20260503192135 13 234 16.1 27.4 0.00 0.51 0.46 39 1014.1
20260503191622 13 248 14.5 25.7 0.03 0.51 0.46 43 1014.3
20260503191119 12 248 12.9 25.7 0.03 0.51 0.46 42 1014.2
20260503190632 13 272 11.3 25.7 0.03 0.53 0.46 42 1014.2
20260503190118 13 289 16.1 25.7 0.03 0.53 0.46 41 1014.3
20260503185633 13 287 11.3 24.1 0.03 0.53 0.46 45 1014.3
20260503185120 13 226 11.3 24.1 0.03 0.53 0.46 41 1014.4
20260503184634 13 293 12.9 22.5 0.03 0.53 0.46 47 1014.5
20260503184143 13 279 8.0 19.3 0.03 0.53 0.46 46 1014.6
20260503183635 12 304 9.7 24.1 0.03 0.53 0.46 44 1014.6
20260503183123 12 284 12.9 30.6 0.03 0.53 0.46 41 1014.7
20260503182619 12 257 17.7 40.2 0.03 0.53 0.46 42 1014.8
20260503182134 12 270 19.3 32.2 0.03 0.53 0.46 44 1014.8
20260503181623 13 18 11.3 22.5 0.00 0.51 0.43 44 1014.6
20260503181119 12 307 11.3 27.4 0.00 0.51 0.43 42 1014.7
20260503180652 12 293 17.7 29.0 0.00 0.51 0.43 43 1014.8
20260503180125 12 288 17.7 32.2 0.03 0.51 0.43 48 1015.0
20260503175619 12 255 16.1 32.2 0.03 0.51 0.43 48 1014.9
20260503175133 12 233 16.1 30.6 0.03 0.51 0.43 46 1015.1
20260503174642 12 220 17.7 30.6 0.03 0.51 0.43 45 1015.0
20260503174157 12 246 16.1 33.8 0.03 0.51 0.43 45 1015.1
20260503173621 12 275 17.7 33.8 0.03 0.51 0.43 47 1015.1
20260503173135 12 243 16.1 27.4 0.03 0.51 0.43 45 1015.0
20260503172624 12 212 14.5 35.4 0.03 0.51 0.43 46 1015.0
20260503172118 12 232 25.7 35.4 0.03 0.51 0.43 44 1015.0
20260503171633 12 314 9.7 38.6 0.03 0.51 0.43 49 1015.1
20260503171142 11 241 17.7 38.6 0.03 0.51 0.43 50 1015.1
20260503170634 11 300 14.5 32.2 0.03 0.51 0.43 47 1015.1
20260503170120 11 289 16.1 32.2 0.03 0.48 0.41 47 1015.3
20260503160155 10 279 11.3 30.6 0.03 0.46 0.38 49 1015.9
20260503150638 8 306 11.3 24.1 0.05 0.43 0.36 50 1016.2
20260503150132 8 222 14.5 27.4 0.05 0.43 0.36 51 1016.2
20260503140132 7 255 9.7 24.1 0.08 0.41 0.30 57 1016.3
20260503131119 6 272 6.4 29.0 0.10 0.33 0.23 66 1016.5
20260503130653 6 272 11.3 32.2 0.13 0.33 0.23 68 1016.5
20260503130117 6 203 17.7 30.6 0.13 0.33 0.23 68 1016.4
20260503120137 4 252 12.9 24.1 0.10 0.20 0.10 75 1016.1
20260503110626 0 210 0.0 4.8 0.00 0.10 0.00 88 1015.8
20260503110120 0 210 1.6 4.8 0.00 0.10 0.00 88 1015.7
20260503100134 -1 225 3.2 6.4 0.00 0.10 0.00 88 1015.1
20260503090138 -1 205 1.6 6.4 0.03 0.10 0.10 87 1015.0
20260503081629 0 239 3.2 6.4 0.00 0.08 0.08 86 1014.8
20260503081141 0 268 0.0 6.4 0.00 0.08 0.08 86 1014.8
20260503080620 0 295 1.6 12.9 0.00 0.10 0.08 86 1014.8
20260503080132 0 297 4.8 12.9 0.00 0.10 0.08 86 1014.7
20260503072622 0 264 0.0 8.0 0.00 0.10 0.08 84 1014.4
20260503072137 1 287 1.6 17.7 0.00 0.10 0.08 84 1014.4
20260503071623 1 253 3.2 17.7 0.00 0.10 0.08 85 1014.4
20260503071118 1 302 1.6 19.3 0.00 0.10 0.08 85 1014.4
20260503070632 0 222 6.4 16.1 0.00 0.10 0.08 86 1014.4
20260503070139 0 291 4.8 9.7 0.00 0.10 0.08 86 1014.3
20260503060122 1 276 1.6 3.2 0.00 0.10 0.08 84 1014.4
20260503055124 1 276 3.2 16.1 0.00 0.10 0.08 86 1014.4
20260503054638 0 285 3.2 9.7 0.00 0.10 0.08 86 1014.4
20260503054133 0 282 1.6 8.0 0.00 0.10 0.08 86 1014.4
20260503053619 0 280 1.6 8.0 0.00 0.10 0.08 86 1014.4
20260503053132 0 258 0.0 6.4 0.00 0.10 0.08 85 1014.4
20260503052622 0 249 1.6 6.4 0.00 0.10 0.08 85 1014.4
20260503052134 0 249 1.6 6.4 0.00 0.10 0.08 85 1014.5
20260503051621 1 245 3.2 6.4 0.00 0.10 0.08 85 1014.5
20260503051157 1 246 3.2 6.4 0.00 0.10 0.08 85 1014.5
20260503050623 1 245 3.2 8.0 0.00 0.13 0.08 85 1014.6
20260503050117 1 246 4.8 8.0 0.00 0.13 0.08 85 1014.6
20260503045633 1 229 4.8 8.0 0.00 0.13 0.08 85 1014.6
20260503045121 1 266 3.2 6.4 0.00 0.13 0.08 84 1014.7
20260503044630 1 266 3.2 9.7 0.00 0.13 0.08 84 1014.7
20260503044123 1 268 1.6 9.7 0.00 0.13 0.08 83 1014.8
20260503043617 1 266 3.2 6.4 0.00 0.13 0.08 82 1014.8
20260503043131 1 273 0.0 4.8 0.00 0.13 0.08 81 1014.8